Wind_Speed
13 13 13 12 12 12 12 12 12 12 12 12 11 11 11 11 11 11 10 10 9 8 8 8 8 8 8 7 7 7 7 8 8 9 9 10 10 10 10 11 11 11 11
14 14 14 14 12 12 12 12 12 12 13 12 12 12 12 12 13 12 11 11 10 9 9 8 9 8 8 7 7 8 8 8 9 9 10 10 10 10 10 10 11 11 11
15 15 15 14 13 13 13 13 12 13 13 13 13 13 13 13 13 13 13 12 11 11 11 10 10 9 8 8 8 9 9 9 9 9 10 10 10 10 10 10 11 11 12
16 16 16 15 14 13 13 13 13 14 14 14 14 14 14 14 14 14 14 13 13 13 13 12 11 11 10 10 10 10 10 10 10 10 10 11 11 11 11 11 12 12 13
16 16 16 16 15 15 14 14 14 14 15 15 15 15 15 15 15 15 14 14 14 14 13 13 12 12 11 11 12 11 11 11 11 11 11 11 12 12 13 12 13 13 13
17 17 17 17 17 16 16 15 15 15 15 15 15 16 16 16 16 15 15 14 14 14 14 13 12 12 12 12 12 11 12 12 12 12 12 12 13 13 13 13 13 13 14
18 18 19 19 18 18 18 17 17 17 16 16 16 16 17 17 16 16 15 15 14 14 13 13 12 12 13 12 12 12 12 13 13 12 12 13 13 14 13 13 14 14 14
19 19 19 19 19 18 19 19 19 18 18 17 17 17 17 16 16 16 15 15 14 13 13 13 12 12 12 13 13 13 13 13 13 14 14 14 14 14 14 14 14 14 14
19 19 20 19 19 19 19 19 19 19 19 18 17 17 16 16 16 16 15 15 15 14 13 13 13 13 13 13 13 13 13 14 14 15 14 14 14 14 14 15 15 15 15
19 19 20 20 20 19 19 19 19 19 18 19 18 17 16 17 17 17 16 16 15 15 14 13 13 13 13 13 13 14 14 14 15 15 15 15 15 15 16 16 16 17 17
19 19 19 19 19 19 19 19 19 19 18 19 19 17 17 17 17 17 17 16 15 15 13 13 13 13 13 13 13 13 14 15 15 14 15 15 16 16 16 16 16 17 17
20 19 18 18 18 18 18 18 18 19 19 19 18 18 18 18 18 17 17 16 14 14 13 13 13 12 12 12 13 13 14 14 14 14 14 16 16 16 16 16 16 17 17
21 20 19 18 18 18 19 19 18 19 19 19 19 19 19 19 19 18 16 15 14 14 13 13 13 13 12 13 14 13 13 13 13 13 13 14 15 15 15 15 16 16 17
21 21 21 20 19 19 19 20 20 20 20 20 20 20 20 19 19 18 16 15 14 14 14 13 13 13 13 13 13 13 13 13 13 14 14 13 14 15 15 15 16 16 17
21 21 21 21 20 20 20 20 21 21 21 20 20 19 19 19 19 18 17 16 15 15 15 14 14 14 14 14 13 13 13 13 13 13 13 13 14 15 15 16 17 17 17
22 21 21 20 20 20 20 21 21 21 21 20 20 20 19 18 18 18 17 17 16 16 16 15 15 14 14 13 13 13 13 13 13 13 14 14 14 15 17 17 17 18 18
22 22 21 21 21 21 21 21 21 21 21 21 21 20 19 19 18 18 18 17 17 17 16 15 14 14 14 13 13 13 14 14 14 15 15 16 16 17 17 18 19 19 19
23 23 22 22 22 22 22 21 21 21 21 21 20 20 19 19 19 19 19 18 17 17 17 16 15 15 15 14 13 14 14 15 15 15 16 17 17 18 18 19 19 18 18
23 23 22 22 22 22 22 21 21 21 20 20 20 20 20 20 19 19 18 18 17 17 17 17 16 16 16 15 15 15 16 16 17 17 17 17 17 18 18 18 18 18 19
22 23 23 23 23 23 23 22 22 21 20 20 20 20 20 19 19 18 18 18 17 17 17 17 17 17 17 17 17 17 17 17 17 18 18 18 17 18 17 18 18 19 20
22 22 22 23 23 23 23 22 22 21 20 20 20 20 19 18 19 18 18 18 18 18 18 18 18 18 18 18 18 18 18 18 18 19 19 19 18 18 19 19 20 21 21
23 23 24 24 24 23 23 22 21 21 20 19 19 19 19 19 19 19 19 19 19 19 19 19 19 19 19 19 19 19 19 19 19 19 20 20 20 20 20 21 22 22 23
24 24 24 25 24 23 23 22 22 22 21 20 19 19 18 19 19 19 19 19 19 19 19 20 20 20 20 20 20 20 20 20 20 20 20 20 21 22 23 23 23 24 24
25 25 25 24 24 24 23 22 22 21 21 21 20 19 19 19 19 19 18 18 19 19 20 20 20 20 20 21 20 20 21 21 21 21 21 22 22 22 24 25 25 25 26
24 25 25 25 24 24 23 23 23 22 22 22 21 21 20 20 20 20 19 19 19 20 21 21 21 20 21 21 21 22 22 22 22 23 23 23 24 24 24 25 25 26 26
24 24 24 24 23 23 23 23 22 22 23 22 21 21 21 20 20 20 20 20 20 20 21 21 21 22 22 22 23 23 24 24 25 25 25 25 25 25 26 27 27 28 28
Wind_Direction
265 269 272 276 282 286 289 293 297 299 301 300 299 301 305 307 305 306 308 307 302 302 299 290 289 291 289 282 272 267 266 266 262 258 262 260 260 258 257 255 256 258 259
270 269 271 274 278 281 283 289 292 296 297 296 294 295 298 302 305 304 304 301 297 295 299 292 291 289 283 274 270 268 268 267 264 263 263 260 259 258 257 255 256 261 264
270 272 272 271 275 278 279 282 284 290 293 292 292 292 293 297 303 307 305 297 293 289 290 290 288 284 279 275 275 270 268 267 269 269 263 260 258 258 256 256 260 264 266
266 269 268 269 271 274 275 276 281 289 291 291 292 290 291 295 299 303 302 294 292 290 286 286 283 278 277 275 276 273 266 268 272 270 263 263 260 260 261 259 261 267 269
264 265 265 264 266 268 269 272 280 286 289 289 291 288 289 292 296 299 301 297 293 291 287 284 281 277 276 276 277 274 266 266 270 269 264 264 262 261 263 264 265 269 272
260 263 264 265 266 266 267 271 277 283 286 287 288 287 288 290 293 296 299 297 295 291 287 281 278 275 276 276 276 273 269 267 269 268 266 267 264 263 265 266 268 273 275
257 260 264 266 266 265 267 271 276 279 282 283 284 285 286 288 289 293 297 296 295 291 287 283 275 272 275 276 273 273 273 271 270 269 268 269 263 265 265 266 269 275 277
256 258 262 265 265 265 268 271 273 276 280 282 281 283 283 285 289 292 294 292 292 290 289 285 280 275 275 275 274 272 272 271 271 271 271 271 265 266 266 268 272 276 278
257 260 262 263 264 265 267 270 273 276 279 280 281 282 280 283 286 288 290 288 286 288 288 286 279 277 276 277 274 274 276 273 273 273 272 271 269 268 269 271 273 276 278
255 259 262 261 262 265 266 269 274 276 277 280 281 280 279 280 285 285 284 283 284 282 283 284 280 277 278 276 274 275 278 279 277 273 271 270 271 270 269 272 274 276 278
254 257 260 260 261 264 266 269 274 276 277 279 281 278 276 279 281 282 283 283 282 280 278 279 281 280 280 277 274 276 277 277 277 275 271 270 270 270 270 272 275 277 279
252 256 259 260 260 264 267 269 272 275 277 280 278 274 274 276 279 280 281 282 279 277 273 275 279 278 280 279 279 279 277 278 277 278 276 271 268 270 273 275 276 277 278
252 256 258 259 261 262 265 268 271 274 278 279 275 273 272 275 277 278 278 276 272 270 272 274 275 276 280 280 279 281 279 280 280 279 280 277 272 272 274 276 276 277 277
253 256 257 257 259 261 263 266 271 274 277 279 276 271 271 275 274 275 274 272 270 270 273 275 275 277 278 278 278 277 276 278 281 281 280 279 280 276 276 278 278 277 277
252 255 257 257 258 260 262 266 271 273 274 276 277 272 272 274 273 271 271 272 272 272 273 274 277 277 276 276 275 274 274 277 282 283 281 281 282 280 280 283 282 279 278
250 253 255 254 256 259 262 266 271 272 273 275 274 272 273 275 272 270 268 269 270 271 272 274 276 277 278 277 275 275 277 277 280 283 284 283 282 283 282 284 284 281 280
249 250 252 254 256 259 262 266 270 271 271 270 270 270 271 272 271 271 268 268 269 269 271 273 275 276 276 276 275 275 275 278 281 284 286 284 283 283 282 283 281 281 281
249 249 251 255 258 259 262 266 269 270 270 267 267 267 269 271 272 271 266 267 268 268 268 268 270 274 275 274 274 275 277 279 282 284 286 285 283 284 284 283 281 281 282
249 249 252 255 257 259 262 264 266 267 269 267 264 265 265 267 268 268 264 266 268 268 266 267 268 271 273 273 274 277 279 281 281 284 286 286 283 285 285 282 282 282 284
248 250 252 254 256 258 259 261 263 265 268 268 263 261 262 263 265 264 263 265 266 267 265 266 267 268 270 273 275 279 282 283 282 284 286 285 284 284 284 283 283 284 285
249 250 251 254 257 258 258 260 262 263 266 266 263 259 260 261 261 261 262 266 267 266 266 268 269 269 270 272 275 277 281 282 284 285 286 285 285 286 286 285 285 286 287
250 250 252 254 256 257 257 257 259 262 264 265 263 259 260 260 259 260 263 265 264 265 267 270 271 271 271 272 274 278 279 281 283 285 286 285 284 285 287 287 286 288 287
249 249 251 254 255 257 256 256 259 261 261 262 261 258 260 262 260 260 262 262 263 265 267 269 271 272 272 272 274 277 278 280 282 284 284 284 285 286 287 287 287 289 289
249 248 249 251 253 255 253 254 256 258 260 260 259 258 258 259 259 259 261 262 264 266 268 269 272 273 273 273 273 275 277 279 281 283 284 285 286 288 287 286 287 288 288
246 247 247 249 252 250 250 252 255 258 259 261 260 258 257 255 257 260 261 265 267 268 269 270 272 272 274 276 274 276 278 279 282 284 284 286 287 287 288 288 288 287 288
246 247 249 249 250 250 249 252 256 258 260 263 261 258 256 255 257 260 261 264 267 269 269 271 272 272 274 276 276 276 276 278 281 282 283 285 285 286 286 287 288 288 288
Height
5888 5888 5888 5887 5887 5886 5885 5884 5883 5882 5881 5879 5878 5877 5875 5874 5872 5870 5868 5867 5865 5864 5863 5862 5862 5861 5860 5860 5860 5860 5860 5859 5859 5860 5860 5860 5860 5860 5860 5860 5861 5860 5860
5885 5885 5885 5885 5884 5884 5883 5882 5881 5880 5879 5877 5876 5875 5873 5872 5870 5868 5867 5865 5864 5863 5861 5860 5860 5859 5859 5858 5858 5858 5858 5857 5858 5858 5858 5858 5859 5858 5858 5858 5858 5858 5858
5882 5882 5882 5881 5881 5881 5880 5879 5878 5877 5876 5875 5874 5872 5871 5869 5868 5866 5865 5863 5862 5861 5860 5859 5858 5857 5857 5856 5856 5856 5856 5856 5855 5855 5855 5856 5856 5856 5856 5856 5856 5855 5855
5878 5878 5878 5878 5878 5878 5877 5876 5875 5874 5873 5872 5871 5869 5868 5867 5865 5863 5862 5860 5859 5858 5857 5856 5855 5855 5854 5854 5854 5853 5853 5853 5853 5853 5853 5853 5853 5853 5853 5854 5853 5853 5852
5874 5874 5875 5875 5875 5874 5874 5873 5872 5872 5870 5869 5868 5866 5865 5864 5862 5861 5859 5857 5856 5855 5854 5853 5853 5852 5852 5852 5851 5851 5851 5851 5851 5850 5850 5850 5850 5850 5850 5850 5850 5850 5849
5870 5871 5871 5871 5871 5871 5870 5870 5869 5868 5867 5866 5865 5863 5862 5860 5859 5858 5856 5854 5853 5852 5851 5850 5849 5849 5849 5849 5848 5848 5848 5848 5848 5848 5848 5848 5847 5847 5847 5847 5847 5847 5846
5866 5866 5866 5867 5867 5867 5866 5866 5865 5865 5864 5863 5862 5860 5858 5857 5856 5854 5853 5851 5849 5848 5847 5847 5846 5846 5846 5846 5846 5845 5845 5845 5845 5845 5844 5844 5844 5844 5844 5844 5844 5843 5843
5861 5862 5862 5862 5862 5862 5862 5862 5861 5861 5860 5859 5858 5856 5855 5854 5852 5851 5849 5848 5846 5845 5845 5844 5843 5843 5843 5843 5842 5842 5842 5842 5842 5841 5841 5841 5841 5841 5841 5841 5840 5840 5840
5856 5857 5857 5857 5857 5857 5857 5857 5857 5856 5855 5855 5853 5852 5851 5850 5849 5848 5846 5845 5844 5843 5842 5841 5840 5840 5839 5839 5839 5839 5838 5838 5838 5838 5838 5838 5838 5837 5837 5837 5837 5837 5836
5851 5852 5852 5852 5852 5853 5853 5852 5852 5851 5851 5850 5849 5848 5847 5846 5845 5844 5843 5842 5841 5840 5839 5838 5837 5836 5836 5836 5835 5835 5835 5834 5834 5834 5834 5834 5834 5834 5833 5833 5833 5832 5832
5846 5847 5847 5848 5848 5848 5848 5848 5847 5846 5846 5845 5844 5843 5843 5842 5841 5840 5839 5838 5837 5836 5835 5835 5834 5833 5833 5832 5832 5832 5831 5831 5830 5830 5830 5829 5829 5829 5829 5829 5829 5828 5827
5841 5842 5842 5843 5843 5843 5843 5843 5842 5842 5841 5840 5839 5838 5838 5837 5837 5836 5835 5834 5833 5833 5832 5831 5831 5830 5829 5829 5828 5827 5827 5827 5826 5826 5825 5825 5825 5825 5825 5825 5824 5824 5823
5836 5837 5837 5838 5838 5838 5838 5838 5838 5837 5836 5836 5834 5834 5833 5833 5833 5832 5831 5830 5830 5829 5829 5828 5827 5827 5826 5825 5825 5824 5823 5823 5823 5822 5822 5821 5821 5821 5821 5820 5820 5819 5819
5830 5831 5832 5833 5833 5833 5833 5833 5833 5833 5832 5831 5830 5829 5829 5828 5828 5828 5828 5827 5826 5826 5825 5824 5824 5823 5822 5821 5821 5821 5820 5820 5819 5819 5819 5818 5817 5817 5816 5816 5815 5815 5814
5824 5825 5826 5827 5828 5828 5828 5828 5828 5827 5827 5826 5825 5824 5824 5824 5824 5824 5823 5823 5823 5822 5822 5821 5820 5819 5818 5818 5817 5817 5817 5816 5816 5816 5815 5814 5814 5813 5812 5812 5811 5810 5809
5818 5820 5821 5822 5822 5823 5823 5823 5822 5822 5821 5821 5820 5820 5820 5820 5819 5819 5819 5819 5819 5818 5818 5817 5816 5815 5814 5814 5813 5814 5813 5813 5813 5812 5811 5810 5810 5809 5809 5808 5807 5806 5805
5812 5813 5815 5815 5816 5817 5817 5817 5817 5816 5816 5815 5815 5815 5816 5815 5815 5815 5815 5814 5814 5814 5813 5813 5813 5812 5811 5810 5810 5810 5810 5809 5809 5808 5807 5806 5806 5805 5804 5803 5802 5800 5800
5806 5807 5808 5809 5810 5811 5811 5811 5811 5810 5810 5810 5810 5811 5811 5810 5810 5810 5810 5810 5809 5809 5809 5809 5809 5808 5807 5807 5807 5806 5806 5805 5805 5804 5803 5802 5801 5800 5799 5798 5796 5795 5794
5799 5801 5802 5803 5804 5805 5805 5805 5805 5805 5805 5805 5805 5805 5805 5805 5805 5805 5805 5805 5805 5804 5804 5804 5804 5804 5803 5803 5803 5802 5802 5801 5800 5800 5799 5797 5796 5795 5794 5792 5791 5790 5789
5793 5794 5795 5797 5798 5798 5799 5799 5799 5799 5799 5799 5799 5799 5799 5799 5799 5800 5800 5800 5800 5800 5800 5800 5799 5799 5799 5799 5798 5798 5797 5796 5796 5795 5794 5792 5791 5790 5789 5787 5786 5785 5784
5786 5787 5789 5790 5791 5792 5793 5793 5793 5793 5793 5793 5793 5793 5794 5794 5794 5794 5795 5795 5795 5795 5795 5795 5794 5794 5794 5794 5793 5793 5792 5791 5791 5790 5789 5787 5786 5785 5784 5782 5781 5779 5778
5780 5781 5782 5784 5785 5786 5786 5787 5788 5788 5788 5788 5788 5788 5788 5788 5788 5789 5789 5789 5789 5789 5789 5789 5789 5789 5788 5788 5788 5788 5787 5786 5785 5784 5783 5782 5781 5780 5778 5777 5775 5774 5772
5773 5774 5776 5777 5778 5779 5780 5781 5782 5782 5782 5782 5783 5783 5783 5783 5783 5783 5783 5783 5784 5784 5784 5784 5783 5783 5783 5783 5782 5782 5781 5780 5779 5778 5777 5776 5775 5773 5772 5771 5769 5767 5766
5766 5767 5769 5770 5772 5773 5774 5775 5775 5776 5776 5777 5777 5777 5777 5777 5777 5777 5778 5778 5778 5778 5778 5778 5777 5777 5777 5776 5776 5775 5775 5774 5773 5772 5771 5770 5768 5767 5765 5764 5762 5760 5759
5759 5760 5762 5763 5765 5766 5767 5768 5769 5769 5770 5770 5771 5771 5771 5771 5771 5771 5772 5772 5772 5772 5772 5772 5771 5771 5771 5770 5770 5769 5768 5768 5767 5765 5764 5762 5761 5760 5758 5756 5754 5752 5750
5752 5754 5755 5756 5758 5759 5760 5761 5762 5763 5764 5764 5764 5764 5765 5765 5765 5765 5765 5765 5766 5766 5765 5765 5765 5765 5764 5763 5763 5762 5761 5760 5759 5758 5756 5755 5753 5752 5750 5749 5747 5744 5742